HSKCS VTBD-VTSM

Flight info

Callsign HSKCS
Flight time N/A
Altitude 37000
Route KASNI3A KASNI M757 MABKO W33 UPNEP
Aircraft C750/M-SBDE3FGHRWXY/S

Departure

Time 2026-04-27 15:27
Airport Don Mueang International Airport (VTBD)

Arrival

Time N/A
Airport Samui International Airport (VTSM)
Time Latitude Longitude Altitude Speed Heading
2026-04-27 15:09 13.90190 100.59399 41 ft 0 kts 299°
2026-04-27 15:16 13.90191 100.59399 41 ft 0 kts 299°
2026-04-27 15:17 13.90186 100.59409 41 ft 2 kts 299°
2026-04-27 15:17 13.90178 100.59422 42 ft 2 kts 299°
2026-04-27 15:17 13.90171 100.59436 42 ft 2 kts 299°
2026-04-27 15:18 13.90164 100.59450 42 ft 2 kts 299°
2026-04-27 15:18 13.90156 100.59463 43 ft 2 kts 314°
2026-04-27 15:18 13.90143 100.59469 43 ft 2 kts 352°
2026-04-27 15:18 13.90129 100.59467 42 ft 2 kts 30°
2026-04-27 15:19 13.90119 100.59460 42 ft 0 kts 29°
2026-04-27 15:21 13.90122 100.59463 42 ft 3 kts 28°
2026-04-27 15:21 13.90170 100.59489 43 ft 11 kts 28°
2026-04-27 15:21 13.90260 100.59540 41 ft 17 kts 29°
2026-04-27 15:21 13.90385 100.59609 33 ft 22 kts 29°
2026-04-27 15:22 13.90537 100.59697 26 ft 26 kts 30°
2026-04-27 15:22 13.90697 100.59785 25 ft 17 kts 28°
2026-04-27 15:22 13.90802 100.59843 25 ft 17 kts 29°
2026-04-27 15:22 13.90887 100.59933 23 ft 15 kts 57°
2026-04-27 15:23 13.90982 100.60018 21 ft 20 kts 37°
2026-04-27 15:23 13.91106 100.60108 20 ft 24 kts 29°
2026-04-27 15:23 13.91265 100.60197 18 ft 25 kts 29°
2026-04-27 15:23 13.91409 100.60278 26 ft 22 kts 29°
2026-04-27 15:24 13.91546 100.60356 28 ft 22 kts 29°
2026-04-27 15:24 13.91690 100.60435 28 ft 26 kts 28°
2026-04-27 15:24 13.91849 100.60524 22 ft 27 kts 29°
2026-04-27 15:24 13.92012 100.60616 21 ft 26 kts 29°
2026-04-27 15:25 13.92170 100.60704 25 ft 25 kts 28°
2026-04-27 15:25 13.92315 100.60786 27 ft 13 kts 28°
2026-04-27 15:25 13.92344 100.60847 26 ft 12 kts 114°
2026-04-27 15:25 13.92297 100.60936 21 ft 16 kts 119°
2026-04-27 15:26 13.92259 100.61005 18 ft 5 kts 120°
2026-04-27 15:26 13.92219 100.61006 18 ft 12 kts 209°
2026-04-27 15:26 13.91830 100.60788 18 ft 117 kts 208°
2026-04-27 15:26 13.90848 100.60246 246 ft 196 kts 207°
2026-04-27 15:27 13.89608 100.59550 1461 ft 208 kts 209°
2026-04-27 15:27 13.88566 100.58562 2827 ft 223 kts 236°
2026-04-27 15:27 13.87939 100.57074 4081 ft 251 kts 248°
2026-04-27 15:27 13.87242 100.55389 5452 ft 269 kts 244°
2026-04-27 15:28 13.86469 100.53653 6981 ft 279 kts 245°
2026-04-27 15:28 13.85670 100.51884 8580 ft 282 kts 246°
2026-04-27 15:28 13.84864 100.50079 10069 ft 287 kts 247°
2026-04-27 15:28 13.83995 100.48242 11452 ft 294 kts 238°
2026-04-27 15:29 13.82629 100.46681 12766 ft 301 kts 226°
2026-04-27 15:29 13.81144 100.45084 13396 ft 331 kts 228°
2026-04-27 15:29 13.79421 100.43362 13961 ft 362 kts 219°
2026-04-27 15:29 13.77010 100.42306 14431 ft 393 kts 191°
2026-04-27 15:30 13.74272 100.42386 15445 ft 404 kts 167°
2026-04-27 15:30 13.71720 100.43626 16607 ft 409 kts 144°
2026-04-27 15:30 13.69365 100.45242 17623 ft 414 kts 156°
2026-04-27 15:30 13.66589 100.45995 18562 ft 420 kts 168°
2026-04-27 15:31 13.63832 100.47112 19319 ft 432 kts 155°
2026-04-27 15:31 13.60845 100.48125 19338 ft 461 kts 164°
2026-04-27 15:31 13.57808 100.49375 19862 ft 475 kts 159°
2026-04-27 15:31 13.54669 100.50428 20666 ft 481 kts 160°
2026-04-27 15:32 13.51527 100.51677 21526 ft 484 kts 162°
2026-04-27 15:32 13.48372 100.52827 22518 ft 484 kts 159°
2026-04-27 15:32 13.45219 100.53992 23562 ft 482 kts 161°
2026-04-27 15:32 13.42100 100.55176 24618 ft 480 kts 161°
2026-04-27 15:33 13.38947 100.56337 25698 ft 478 kts 161°
2026-04-27 15:33 13.35815 100.57506 26439 ft 484 kts 161°
2026-04-27 15:33 13.32550 100.58718 26398 ft 507 kts 161°
2026-04-27 15:33 13.29187 100.59969 26410 ft 526 kts 161°
2026-04-27 15:34 13.25684 100.61272 26696 ft 539 kts 161°
2026-04-27 15:34 13.22163 100.62582 27512 ft 539 kts 161°
2026-04-27 15:34 13.18629 100.63901 28457 ft 537 kts 161°
2026-04-27 15:34 13.15135 100.65198 29480 ft 533 kts 161°
2026-04-27 15:35 13.11570 100.66469 29658 ft 546 kts 164°
2026-04-27 15:35 13.07836 100.67367 29844 ft 555 kts 171°
2026-04-27 15:35 13.04018 100.67846 30311 ft 556 kts 177°
2026-04-27 15:35 13.00139 100.67899 30918 ft 552 kts 184°
2026-04-27 15:36 12.96341 100.67600 31582 ft 548 kts 185°
2026-04-27 15:36 12.92505 100.67454 32244 ft 546 kts 184°
2026-04-27 15:36 12.88722 100.67327 32915 ft 543 kts 183°
2026-04-27 15:36 12.84929 100.67226 33572 ft 541 kts 183°
2026-04-27 15:37 12.81166 100.67128 34219 ft 539 kts 183°
2026-04-27 15:37 12.77416 100.67030 34816 ft 539 kts 183°
2026-04-27 15:37 12.69854 100.66831 36089 ft 537 kts 183°
2026-04-27 15:37 12.65868 100.66728 36580 ft 537 kts 183°
2026-04-27 15:38 12.62121 100.66628 36808 ft 540 kts 183°
2026-04-27 15:38 12.58339 100.66530 36842 ft 544 kts 183°
2026-04-27 15:38 12.50699 100.66329 36842 ft 547 kts 183°
2026-04-27 15:39 12.31659 100.65823 36835 ft 547 kts 183°
2026-04-27 15:39 12.20748 100.65550 36847 ft 547 kts 183°
2026-04-27 15:40 12.01079 100.65041 36833 ft 548 kts 183°
2026-04-27 15:40 11.82300 100.64566 36837 ft 547 kts 183°
2026-04-27 15:41 11.74701 100.64136 36846 ft 546 kts 189°
2026-04-27 15:41 11.67349 100.62153 36857 ft 543 kts 202°
2026-04-27 15:42 11.63692 100.61186 36818 ft 545 kts 189°
2026-04-27 15:42 11.59859 100.60851 36846 ft 547 kts 185°
2026-04-27 15:42 11.52185 100.60709 36863 ft 549 kts 181°
2026-04-27 15:43 11.44490 100.60741 36858 ft 549 kts 181°
2026-04-27 15:43 11.36813 100.60779 36861 ft 549 kts 181°
2026-04-27 15:44 11.29133 100.60815 36860 ft 549 kts 181°
2026-04-27 15:44 11.21449 100.60852 36856 ft 549 kts 181°
2026-04-27 15:45 11.13750 100.60891 36849 ft 549 kts 181°
2026-04-27 15:45 11.06049 100.60928 36849 ft 549 kts 181°
2026-04-27 15:46 10.98376 100.60967 36849 ft 549 kts 181°
2026-04-27 15:46 10.90688 100.61003 36851 ft 546 kts 181°
2026-04-27 15:47 10.87029 100.61024 36801 ft 508 kts 181°
2026-04-27 15:47 10.83660 100.61041 36812 ft 458 kts 181°
2026-04-27 15:47 10.80611 100.61057 36775 ft 418 kts 181°
2026-04-27 15:47 10.77796 100.61070 36782 ft 384 kts 181°
2026-04-27 15:48 10.75219 100.61083 36675 ft 358 kts 181°
2026-04-27 15:48 10.72724 100.61092 35698 ft 356 kts 181°
2026-04-27 15:48 10.70478 100.61108 36440 ft 311 kts 181°
2026-04-27 15:49 10.65470 100.61108 28955 ft 443 kts 179°
2026-04-27 15:49 10.62419 100.61124 26825 ft 441 kts 178°
2026-04-27 15:49 10.59427 100.61144 25457 ft 422 kts 178°
2026-04-27 15:49 10.56554 100.61163 24139 ft 405 kts 178°
2026-04-27 15:50 10.53815 100.61176 22754 ft 393 kts 178°
2026-04-27 15:50 10.51153 100.61189 21818 ft 370 kts 178°
2026-04-27 15:50 10.48619 100.61203 21215 ft 354 kts 178°
2026-04-27 15:50 10.46204 100.61146 20619 ft 342 kts 180°
2026-04-27 15:51 10.43847 100.61086 20099 ft 329 kts 179°
2026-04-27 15:51 10.41588 100.61028 19863 ft 315 kts 179°
2026-04-27 15:51 10.39444 100.60975 19614 ft 305 kts 179°
2026-04-27 15:51 10.37345 100.60923 19364 ft 297 kts 179°
2026-04-27 15:52 10.35306 100.60873 19119 ft 290 kts 179°
2026-04-27 15:52 10.33284 100.60825 18873 ft 284 kts 179°